Terminal Aerodrome Forecast
Issued by NWS

Home | Current Version | Previous Version | Text Only | Print | Product List | Glossary On
Versions: 1 2 3 4 5 6 7 8 9 10 11 12 13 14 15 16 17 18 19 20 21 22 23 24 25 26
000
FTUS45 KREV 031338 AAA
TAFTRK
TAF AMD
KTRK 031338Z 0314/0412 VRB04KT P6SM FEW090 SCT180
     FM032000 23010G18KT P6SM SCT090 SCT180
     FM040300 VRB03KT P6SM SCT180=

USA.gov is the U.S. government's official web portal to all federal, state and local government web resources and services.